Time,TemperatureF,DewpointF,PressureIn,WindDirection,WindDirectionDegrees,WindSpeedMPH,WindSpeedGustMPH,Humidity,HourlyPrecipIn,Conditions,Clouds,dailyrainin,SolarRadiationWatts/m^2,SoftwareType,DateUTC
2013-04-29 00:11:00,57.0,20.0,-100.00,SE,139,1.0,9.0,23,0.00,,,0.00,0.000000,,2013-04-29 06:11:00,
2013-04-29 00:21:00,57.0,20.0,-100.00,SE,139,1.0,9.0,23,0.00,,,0.00,0.000000,,2013-04-29 06:21:00,
2013-04-29 00:32:00,57.0,20.0,-100.00,SE,139,1.0,9.0,23,0.00,,,0.00,0.000000,,2013-04-29 06:32:00,
2013-04-29 00:41:00,57.0,20.0,-100.00,SE,139,1.0,9.0,23,0.00,,,0.00,0.000000,,2013-04-29 06:41:00,
2013-04-29 01:21:00,56.0,19.0,-100.00,WSW,244,3.0,9.0,23,0.00,,,-99.99,0.000000,,2013-04-29 07:21:00,
2013-04-29 01:32:00,56.0,19.0,-100.00,WSW,244,3.0,9.0,23,0.00,,,-99.99,0.000000,,2013-04-29 07:32:00,
2013-04-29 01:41:00,56.0,19.0,-100.00,WSW,244,3.0,9.0,23,0.00,,,-99.99,0.000000,,2013-04-29 07:41:00,
2013-04-29 02:11:00,50.0,21.0,-100.00,SSE,147,4.0,8.0,32,0.00,,,0.00,0.000000,,2013-04-29 08:11:00,
2013-04-29 02:21:00,50.0,21.0,-100.00,SSE,147,4.0,8.0,32,0.00,,,0.00,0.000000,,2013-04-29 08:21:00,
2013-04-29 02:31:00,50.0,21.0,-100.00,SSE,147,4.0,8.0,32,0.00,,,0.00,0.000000,,2013-04-29 08:31:00,
2013-04-29 02:41:00,50.0,21.0,-100.00,SSE,147,4.0,8.0,32,0.00,,,0.00,0.000000,,2013-04-29 08:41:00,
2013-04-29 03:12:00,51.0,21.0,-100.00,SW,220,5.0,6.0,30,0.00,,,0.00,0.000000,,2013-04-29 09:12:00,
2013-04-29 03:21:00,51.0,21.0,-100.00,SW,220,5.0,6.0,30,0.00,,,0.00,0.000000,,2013-04-29 09:21:00,
2013-04-29 03:32:00,51.0,21.0,-100.00,SW,220,5.0,6.0,30,0.00,,,0.00,0.000000,,2013-04-29 09:32:00,
2013-04-29 03:42:00,51.0,21.0,-100.00,SW,220,5.0,6.0,30,0.00,,,0.00,0.000000,,2013-04-29 09:42:00,
2013-04-29 04:12:00,52.0,20.0,-100.00,WSW,240,4.0,7.0,28,0.00,,,0.00,0.000000,,2013-04-29 10:12:00,
2013-04-29 04:23:00,52.0,20.0,-100.00,WSW,240,4.0,7.0,28,0.00,,,0.00,0.000000,,2013-04-29 10:23:00,
2013-04-29 04:32:00,52.0,20.0,-100.00,WSW,240,4.0,7.0,28,0.00,,,0.00,0.000000,,2013-04-29 10:32:00,
2013-04-29 04:42:00,52.0,20.0,-100.00,WSW,240,4.0,7.0,28,0.00,,,0.00,0.000000,,2013-04-29 10:42:00,
2013-04-29 05:12:00,54.0,20.0,-100.00,SW,227,6.0,9.0,26,0.00,,,0.00,0.000000,,2013-04-29 11:12:00,
2013-04-29 05:21:00,54.0,20.0,-100.00,SW,227,6.0,9.0,26,0.00,,,0.00,0.000000,,2013-04-29 11:21:00,
2013-04-29 05:32:00,54.0,20.0,-100.00,SW,227,6.0,9.0,26,0.00,,,0.00,0.000000,,2013-04-29 11:32:00,
2013-04-29 05:41:00,54.0,20.0,-100.00,SW,227,6.0,9.0,26,0.00,,,0.00,0.000000,,2013-04-29 11:41:00,
2013-04-29 06:12:00,52.0,20.0,-100.00,SW,219,5.0,8.0,28,0.00,,,0.00,0.000000,,2013-04-29 12:12:00,
2013-04-29 06:21:00,52.0,20.0,-100.00,SW,219,5.0,8.0,28,0.00,,,0.00,0.000000,,2013-04-29 12:21:00,
2013-04-29 06:31:00,52.0,20.0,-100.00,SW,219,5.0,8.0,28,0.00,,,0.00,0.000000,,2013-04-29 12:31:00,
2013-04-29 06:41:00,52.0,20.0,-100.00,SW,219,5.0,8.0,28,0.00,,,0.00,0.000000,,2013-04-29 12:41:00,
2013-04-29 07:11:00,55.0,21.0,-100.00,SW,231,6.0,11.0,26,0.00,,,0.00,10.000000,,2013-04-29 13:11:00,
2013-04-29 07:21:00,55.0,21.0,-100.00,SW,231,6.0,11.0,26,0.00,,,0.00,10.000000,,2013-04-29 13:21:00,
2013-04-29 07:31:00,55.0,21.0,-100.00,SW,231,6.0,11.0,26,0.00,,,0.00,10.000000,,2013-04-29 13:31:00,
2013-04-29 07:42:00,55.0,21.0,-100.00,SW,231,6.0,11.0,26,0.00,,,0.00,10.000000,,2013-04-29 13:42:00,
2013-04-29 08:11:00,60.0,24.0,-100.00,WSW,246,6.0,10.0,25,0.00,,,0.00,150.000000,,2013-04-29 14:11:00,
2013-04-29 08:21:00,60.0,24.0,-100.00,WSW,246,6.0,10.0,25,0.00,,,0.00,150.000000,,2013-04-29 14:21:00,
2013-04-29 08:32:00,60.0,24.0,-100.00,WSW,246,6.0,10.0,25,0.00,,,0.00,150.000000,,2013-04-29 14:32:00,
2013-04-29 08:42:00,60.0,24.0,-100.00,WSW,246,6.0,10.0,25,0.00,,,0.00,150.000000,,2013-04-29 14:42:00,
2013-04-29 09:12:00,64.0,24.0,-100.00,West,273,6.0,12.0,22,0.00,,,0.00,366.000000,,2013-04-29 15:12:00,
2013-04-29 09:21:00,64.0,24.0,-100.00,West,273,6.0,12.0,22,0.00,,,0.00,366.000000,,2013-04-29 15:21:00,
2013-04-29 09:33:00,64.0,24.0,-100.00,West,273,6.0,12.0,22,0.00,,,0.00,366.000000,,2013-04-29 15:33:00,
2013-04-29 09:42:00,64.0,24.0,-100.00,West,273,6.0,12.0,22,0.00,,,0.00,366.000000,,2013-04-29 15:42:00,
2013-04-29 10:12:00,64.0,24.0,-100.00,WNW,297,9.0,16.0,22,0.00,,,0.00,550.000000,,2013-04-29 16:12:00,
2013-04-29 10:23:00,64.0,24.0,-100.00,WNW,297,9.0,16.0,22,0.00,,,0.00,550.000000,,2013-04-29 16:23:00,
2013-04-29 10:32:00,64.0,24.0,-100.00,WNW,297,9.0,16.0,22,0.00,,,0.00,550.000000,,2013-04-29 16:32:00,
2013-04-29 10:42:00,64.0,24.0,-100.00,WNW,297,9.0,16.0,22,0.00,,,0.00,550.000000,,2013-04-29 16:42:00,
2013-04-29 11:12:00,66.0,25.0,-100.00,WNW,303,9.0,15.0,21,0.00,,,0.00,768.000000,,2013-04-29 17:12:00,
2013-04-29 11:22:00,66.0,25.0,-100.00,WNW,303,9.0,15.0,21,0.00,,,0.00,768.000000,,2013-04-29 17:22:00,
2013-04-29 11:32:00,66.0,25.0,-100.00,WNW,303,9.0,15.0,21,0.00,,,0.00,768.000000,,2013-04-29 17:32:00,
2013-04-29 11:42:00,66.0,25.0,-100.00,WNW,303,9.0,15.0,21,0.00,,,0.00,768.000000,,2013-04-29 17:42:00,
2013-04-29 12:13:00,67.0,23.0,-100.00,West,279,9.0,17.0,19,0.00,,,0.00,913.000000,,2013-04-29 18:13:00,
2013-04-29 12:22:00,67.0,23.0,-100.00,West,279,9.0,17.0,19,0.00,,,0.00,913.000000,,2013-04-29 18:22:00,
2013-04-29 12:31:00,67.0,23.0,-100.00,West,279,9.0,17.0,19,0.00,,,0.00,913.000000,,2013-04-29 18:31:00,
2013-04-29 12:41:00,67.0,23.0,-100.00,West,279,9.0,17.0,19,0.00,,,0.00,913.000000,,2013-04-29 18:41:00,
2013-04-29 13:11:00,69.0,24.0,-100.00,West,262,11.0,23.0,18,0.00,,,0.00,1016.000000,,2013-04-29 19:11:00,
2013-04-29 13:21:00,69.0,24.0,-100.00,West,262,11.0,23.0,18,0.00,,,0.00,1016.000000,,2013-04-29 19:21:00,
2013-04-29 13:31:00,69.0,24.0,-100.00,West,262,11.0,23.0,18,0.00,,,0.00,1016.000000,,2013-04-29 19:31:00,
2013-04-29 13:41:00,69.0,24.0,-100.00,West,262,11.0,23.0,18,0.00,,,0.00,1016.000000,,2013-04-29 19:41:00,
2013-04-29 14:11:00,70.0,22.0,-100.00,WSW,255,13.0,26.0,16,0.00,,,0.00,1050.000000,,2013-04-29 20:11:00,
2013-04-29 14:21:00,70.0,22.0,-100.00,WSW,255,13.0,26.0,16,0.00,,,0.00,1050.000000,,2013-04-29 20:21:00,
2013-04-29 14:32:00,70.0,22.0,-100.00,WSW,255,13.0,26.0,16,0.00,,,0.00,1050.000000,,2013-04-29 20:32:00,
2013-04-29 14:42:00,70.0,22.0,-100.00,WSW,255,13.0,26.0,16,0.00,,,0.00,1050.000000,,2013-04-29 20:42:00,
2013-04-29 15:11:00,71.0,21.0,-100.00,WSW,246,13.0,26.0,15,0.00,,,0.00,1006.000000,,2013-04-29 21:11:00,
2013-04-29 15:21:00,71.0,21.0,-100.00,WSW,246,13.0,26.0,15,0.00,,,0.00,1006.000000,,2013-04-29 21:21:00,
2013-04-29 15:33:00,71.0,21.0,-100.00,WSW,246,13.0,26.0,15,0.00,,,0.00,1006.000000,,2013-04-29 21:33:00,
2013-04-29 15:42:00,71.0,21.0,-100.00,WSW,246,13.0,26.0,15,0.00,,,0.00,1006.000000,,2013-04-29 21:42:00,
2013-04-29 16:13:00,71.0,19.0,-100.00,SW,230,13.0,25.0,14,0.00,,,0.00,885.000000,,2013-04-29 22:13:00,
2013-04-29 16:23:00,71.0,19.0,-100.00,SW,230,13.0,25.0,14,0.00,,,0.00,885.000000,,2013-04-29 22:23:00,
2013-04-29 16:32:00,71.0,19.0,-100.00,SW,230,13.0,25.0,14,0.00,,,0.00,885.000000,,2013-04-29 22:32:00,
2013-04-29 16:42:00,71.0,19.0,-100.00,SW,230,13.0,25.0,14,0.00,,,0.00,885.000000,,2013-04-29 22:42:00,
2013-04-29 17:11:00,70.0,19.0,-100.00,WSW,246,15.0,28.0,14,0.00,,,0.00,731.000000,,2013-04-29 23:11:00,
2013-04-29 17:22:00,70.0,19.0,-100.00,WSW,246,15.0,28.0,14,0.00,,,0.00,731.000000,,2013-04-29 23:22:00,
2013-04-29 17:32:00,70.0,19.0,-100.00,WSW,246,15.0,28.0,14,0.00,,,0.00,731.000000,,2013-04-29 23:32:00,
2013-04-29 17:42:00,70.0,19.0,-100.00,WSW,246,15.0,28.0,14,0.00,,,0.00,731.000000,,2013-04-29 23:42:00,
2013-04-29 18:11:00,70.0,19.0,-100.00,West,260,8.0,23.0,14,0.00,,,0.00,534.000000,,2013-04-30 00:11:00,
2013-04-29 18:21:00,70.0,19.0,-100.00,West,260,8.0,23.0,14,0.00,,,0.00,534.000000,,2013-04-30 00:21:00,
2013-04-29 18:32:00,70.0,19.0,-100.00,West,260,8.0,23.0,14,0.00,,,0.00,534.000000,,2013-04-30 00:32:00,
2013-04-29 18:41:00,70.0,19.0,-100.00,West,260,8.0,23.0,14,0.00,,,0.00,534.000000,,2013-04-30 00:41:00,
2013-04-29 19:11:00,66.0,20.0,-100.00,WSW,251,6.0,17.0,17,0.00,,,0.00,173.000000,,2013-04-30 01:11:00,
2013-04-29 19:21:00,66.0,20.0,-100.00,WSW,251,6.0,17.0,17,0.00,,,0.00,173.000000,,2013-04-30 01:21:00,
2013-04-29 19:32:00,66.0,20.0,-100.00,WSW,251,6.0,17.0,17,0.00,,,0.00,173.000000,,2013-04-30 01:32:00,
2013-04-29 19:41:00,66.0,20.0,-100.00,WSW,251,6.0,17.0,17,0.00,,,0.00,173.000000,,2013-04-30 01:41:00,